www.pogodaiklimat.ru

Погода и климат >> Архив погоды >> Россия >> Чечня >> Шатой


ПОГОДА в Шатое

  • Прогноз погоды в Шатое
  • Монитор погоды в Шатое

АРХИВ ПОГОДЫ в Шатое

Время (UTC), дата Ветер
(напр.,м/с)
 
Видим.   Явления Облачность Т
(С)
Тd
(С)
f
(%)
Тe
(С)
Тes
(С)
Комфортность P
(гПа)
Po
(гПа)
Тmin
(С)
Tmax
(С)
R
(мм)
R24
(мм)
S
(см)
03 17.07 штиль 0 4000 м слаб. ливневой дождь 10/10 600 м
[Cb cap]
+17.1 +15.7 91 +17 +17 1011.6 946.2 +17.1 1
06 17.07 СЗ 2 20 км 10/10 600 м
[Cu med, cong]
+17.3 +16.1 93 +18 +18 1011.2 945.8
09 17.07 В 1 20 км 10/10 600 м
[Cu med, cong]
+19.2 +17.1 88 +22 +22 комфорт 1009.3 944.5
12 17.07 С 3 20 км 10/10 600 м
[Cu med, cong]
+21.3 +17.7 80 +25 +25 комфорт 1007.7 943.4
15 17.07 штиль 0 20 км 10/10 600 м
[Cu med, cong]
+20.6 +17.5 82 +24 +24 комфорт 1008.7 944.2 +26.7 0.4
03 18.07 штиль 0 20 км 1/1 600 м
[Sc]
+15.3 +13.0 86 +15 +17 1008.0 942.4 +15.3
06 18.07 В 1 20 км 3/3 600 м
[Cu med, cong]
+22.6 +18.5 78 +28 +38 душно 1005.6 941.7
09 18.07 С 3 20 км 3/3 600 м
[Cu med, cong]
+27.3 +21.0 69 +34 +46 очень
душно
1003.1 940.3
12 18.07 СЗ 1 20 км 9/9 600 м
[Cu med, cong]
+29.1 +22.3 67 +38 +39 очень
душно
1002.6 940.2
15 18.07 ЮВ 2 20 км 10/10 600 м
[Cu med, cong]
+26.7 +19.6 65 +32 +32 очень
душно
1004.7 941.7 +29.1
03 19.07 С 2 4000 м слаб. ливневой дождь 10/10 600 м
[Cb cap]
+18.3 +15.3 83 +19 +19 1011.7 946.5 +18.3 2
06 19.07 СВ 3 20 км 10/10 600 м
[Cu med, cong]
+20.5 +18.1 86 +24 +24 комфорт 1012.6 947.8
09 19.07 С 2 20 км 10/10 600 м
[Cu med, cong]
+20.5 +17.9 85 +25 +25 комфорт 1013.2 948.4
12 19.07 штиль 0 20 км 10/10 600 м
[Cu med, cong]
+22.4 +18.3 78 +28 +28 душно 1012.5 948.1
15 19.07 С 1 20 км 10/10 600 м
[Cu med, cong]
+21.2 +13.4 61 +24 +24 комфорт 1013.1 948.4 +26.7 0.5
03 20.07 штиль 0 20 км 10/10 600 м
[Sc]
+18.2 +16.2 88 +19 +19 1018.1 952.5 +18.2 2
06 20.07 С 2 20 км 10/10 600 м
[Cu med, cong]
+19.5 +17.0 85 +22 +22 комфорт 1018.5 953.1
09 20.07 штиль 0 20 км 10/10 600 м
[Cu med, cong]
+22.3 +18.5 79 +28 +28 душно 1017.5 952.8
12 20.07 С 2 20 км 10/10 600 м
[Cu med, cong]
+22.1 +18.1 78 +27 +27 душно 1017.2 952.5
15 20.07 ЮВ 1 20 км 10/10 600 м
[Cu med, cong]
+21.5 +18.0 80 +26 +26 душно 1017.8 952.9 +22.4
03 21.07 С 1 20 км 1/1 600 м
[Sc]
+17.4 +14.8 85 +18 +20 1017.7 951.9 +17.4
06 21.07 штиль 0 20 км 8/8 600 м
[Cu med, cong Ci ing]
+24.8 +21.0 79 +31 +34 очень
душно
1014.1 950.1
09 21.07 С 3 20 км 5/5 600 м
[Cu med, cong]
+28.1 +21.5 67 +36 +44 очень
душно
1011.1 948.0
12 21.07 С 2 20 км 10/10 600 м
[Cu med, cong]
+28.7 +19.9 59 +35 +35 очень
душно
1009.8 946.9
15 21.07 С 1 20 км 10/10 600 м
[Cu med, cong]
+26.9 +20.5 68 +33 +33 очень
душно
1010.0 946.7 +28.7
03 22.07 штиль 0 20 км 10/10 600 м
[Sc]
+19.7 +15.9 79 +22 +22 комфорт 1013.0 948.0 +19.7
06 22.07 С 3 20 км 10/10 600 м
[Cu med, cong]
+22.8 +18.2 75 +28 +28 душно 1012.4 948.1
09 22.07 С 4 20 км 10/10 600 м
[Cu med, cong]
+22.9 +18.1 74 +28 +28 душно 1012.8 948.5
12 22.07 В 1 4000 м слаб. ливневой дождь 10/10 200 м
[Frnb]
+19.7 +17.9 89 +23 +23 комфорт 1015.1 950.0
15 22.07 штиль 0 20 км 10/10 600 м
[Cu med, cong]
+19.4 +18.3 93 +21 +21 комфорт 1015.5 950.3 +26.9 0.9
03 23.07 В 1 10 км 10/10 600 м
[Sc]
+17.4 +16.4 94 +18 +18 1014.5 948.9 +17.4
06 23.07 С 2 20 км 9/9 600 м
[Cu med, cong]
+21.5 +18.8 85 +26 +27 душно 1011.7 947.2
09 23.07 С 4 20 км 10/10 600 м
[Cu med, cong]
+19.6 +17.0 85 +22 +22 комфорт 1011.4 946.5
12 23.07 СВ 1 20 км 10/10 600 м
[Cu med, cong]
+19.2 +16.7 85 +22 +22 комфорт 1011.6 946.6

 

Местоположение метеостанции Шатой (Чечня, Россия): широта 42.88 долгота 45.68 высота над уровнем моря 568 м.

В архиве по умолчанию представлена погода в Шатое за последнюю неделю. Архивные данные за месяц целиком и за предыдущие месяцы, начиная с января 2011 года, Вы можете получить, выбрав интересующий диапазон дат из раскрывающегося списка и нажав кнопку "Ввод!".


*Определитесь, кто Вы:
робот инопланетянин человек

Внимание! Время в таблицах - всемирное. Для получения местного времени необходимо прибавить поправку, которая равна 3 ч.

Смотрите также архив погоды в соседних городах и на ближайших метеорологических станциях:

Погода в Грозном (Чечня, Россия) (41 км)
Погода в Гудермесе (Чечня, Россия) (63 км)
Погода в Сулаке (высокогорная) (Дагестан, Россия) (73 км)
Погода в Назрани (Ингушетия, Россия) (74 км)
Погода в Владикавказе (Северная Осетия, Россия) (83 км)
Погода в Хасавюрте (Дагестан, Россия) (84 км)
Погода в Хунзахе (Дагестан, Россия) (90 км)
Погода в Наурской (Чечня, Россия) (90 км)
Погода в Шелковской (Чечня, Россия) (91 км)
Погода в Пасанаури (Грузия) (100 км)

Пояснения к столбцам:

Ветер - указаны скорость ветра в м/с - средняя за 10 мин, порывы в срок и между сроками (в фигурных скобках) и направление, откуда дует ветер: С - северный, СВ - северо-восточный, В - восточный, ЮВ - юго-восточный, Ю - южный, ЮЗ - юго-западный, З - западный, СЗ - северо-западный.
Видимость - горизонтальная дальность видимости в метрах или километрах. При видимости от 1 до 10 км при отсутствии осадков обычно наблюдается дымка, при ухудшении видимости до 1 км и менее - туман. В сухую погоду видимость может ухудшаться дымом, пылью или мглою.
Явления - указаны атмосферные явления, наблюдавшиеся в срок или в последний час перед сроком; фигурными скобками обозначены явления, наблюдавшиеся между сроками (за 1-3 часа до срока); квадратными скобками обозначены град или гололедные отложения с указанием их диаметра в мм.
Облачность - указаны через наклонную черту общая и нижняя облачность в баллах и высота нижней границы облаков в метрах; квадратными скобками обозначены формы облаков: Ci - перистые, Cs - перисто-слоистые, Cc - перисто-кучевые, Ac - высококучевые, As - высокослоистые, Sc - слоисто-кучевые, Ns - слоисто-дождевые, Cu - кучевые, Cb - кучево-дождевые. Подробнее классификацию облаков см. в Атласе облаков (PDF).
T - Температура воздуха - температура, измеренная на высоте 2 м над землей.
Td - Температура точки росы - температура, при понижении до которой содержащийся в воздухе водяной пар достигнет насыщения.
f - Относительная влажность воздуха - влажноcть воздуха, измеренная на высоте 2 м над землей.
Te - Эффективная температура - температура, которую ощущает одетый по сезону человек в тени. Характеристика душности погоды. При расчете учитывается влияние влажности воздуха и скорости ветра на теплоощущения человека.
Tes - Эффективная температура на солнце - температура, которую ощущает человек, с поправкой на солнечный нагрев. Характеристика знойности погоды. Зависит от высоты солнца над горизонтом, облачности и скорости ветра. Ночью, в пасмурную погоду, а также при ветре 12 м/с и более поправка равна нулю.
P - Атмосферное давление - приведенное к уровню моря атмосферное давление.
Po - Атмосферное давление - измеренное на уровне метеостанции атмосферное давление.
Tmin - Минимальная температура - минимум температуры воздуха на высоте 2 м над землей.
Tmax - Максимальная температура - максимум температуры воздуха на высоте 2 м над землей.
R - Количество осадков - Количество выпавших осадков за период времени, мм. При наведении курсора мыши на число - период времени, за который выпало указанное количество осадков.
R24 - Количество осадков - Количество выпавших осадков за 24 часа, мм.
S - Снежный покров - Высота снежного покрова, см. При наведении курсора мыши на число - состояние снежного покрова и степень покрытия местности в баллах.